EW1914 Weather Reports


Display with metric or nautical units.
time (UTC)temp
F
wind
direction
speed
MPH
gust
MPH
rain 1hr
in
rain 24hr
in
rain mn
in
humidity
%
barometer
mb
20260506031959 63 0.0 0.0 0.00 0.00 0.00 76 1014.7
20260506030958 64 0.0 0.0 0.00 0.00 0.00 75 1014.6
20260506030000 64 0.0 0.0 0.00 0.00 0.00 75 1014.6
20260506024959 64 0.0 0.0 0.00 0.00 0.00 74 1014.6
20260506021959 65 0.0 0.0 0.00 0.00 0.00 74 1014.4
20260506020959 65 0.0 0.0 0.00 0.00 0.00 73 1014.5
20260506015000 65 0.0 0.0 0.00 0.00 0.00 73 1014.4
20260506013958 65 0.0 0.0 0.00 0.00 0.00 72 1014.5
20260506013000 65 0.0 0.0 0.00 0.00 0.00 71 1014.5
20260506011958 65 0.0 0.0 0.00 0.00 0.00 71 1014.5
20260506011000 65 0.0 0.0 0.00 0.00 0.00 72 1014.5
20260506010001 65 0.0 0.0 0.00 0.00 0.00 73 1014.4
20260506004959 64 0.0 0.0 0.00 0.00 0.00 73 1014.5
20260506003958 64 0.0 0.0 0.00 0.00 0.00 74 1014.7
20260506003001 64 0.0 0.0 0.00 0.00 0.00 74 1014.6
20260506001000 64 0.0 0.0 0.00 0.00 0.00 73 1014.8
20260506000000 64 0.0 0.0 0.00 0.00 0.00 73 1014.8
20260505234959 64 0.0 0.0 0.00 0.00 0.00 72 1014.9
20260505232959 64 0.0 0.0 0.00 0.00 0.00 73 1014.9
20260505230959 64 0.0 0.0 0.00 0.00 0.00 74 1015.1
20260505230004 64 0.0 0.0 0.00 0.00 0.00 75 1015.2
20260505224958 63 0.0 0.0 0.00 0.00 0.00 75 1015.2
20260505223001 63 0.0 0.0 0.00 0.00 0.00 76 1015.4
20260505221959 63 0.0 0.0 0.00 0.00 0.00 76 1015.5
20260505220001 63 0.0 0.0 0.00 0.00 0.00 78 1015.5
20260505215000 63 0.0 0.0 0.00 0.00 0.00 77 1015.5
20260505214000 63 0.0 0.0 0.00 0.00 0.00 78 1015.6
20260505211959 62 0.0 0.0 0.00 0.00 0.00 78 1015.6
20260505210958 62 0.0 0.0 0.00 0.00 0.00 77 1015.7
20260505210002 62 0.0 0.0 0.00 0.00 0.00 78 1015.7
20260505205004 62 0.0 0.0 0.00 0.00 0.00 79 1015.8
20260505204001 62 0.0 0.0 0.00 0.00 0.00 80 1015.8
20260505203001 62 0.0 0.0 0.00 0.00 0.00 79 1015.9
20260505195959 61 0.0 0.0 0.00 0.00 0.00 78 1015.9
20260505194959 62 0.0 0.0 0.00 0.00 0.00 76 1015.9
20260505194000 61 0.0 0.0 0.00 0.00 0.00 80 1016.0
20260505193000 61 0.0 0.0 0.00 0.00 0.00 82 1016.0
20260505191958 60 0.0 0.0 0.00 0.00 0.00 83 1016.1
20260505190959 59 0.0 0.0 0.00 0.00 0.00 85 1016.1
20260505183959 58 0.0 0.0 0.00 0.00 0.00 87 1016.1
20260505183000 58 0.0 0.0 0.00 0.00 0.00 88 1016.1
20260505181959 58 0.0 0.0 0.00 0.00 0.00 88 1016.1
20260505180958 58 0.0 0.0 0.00 0.00 0.00 89 1016.0
20260505175959 58 0.0 0.0 0.00 0.00 0.00 89 1016.0
20260505174957 57 0.0 0.0 0.00 0.00 0.00 89 1016.0
20260505173957 57 0.0 0.0 0.00 0.00 0.00 89 1016.0
20260505172959 57 0.0 0.0 0.00 0.00 0.00 90 1015.9
20260505171957 57 0.0 0.0 0.00 0.00 0.00 90 1015.8
20260505170959 57 0.0 0.0 0.00 0.00 0.00 91 1015.7
20260505165959 57 0.0 0.0 0.00 0.00 0.00 91 1015.7
20260505164958 57 0.0 0.0 0.00 0.00 0.00 92 1015.6
20260505163958 56 0.0 0.0 0.00 0.00 0.00 92 1015.7
20260505162959 56 0.0 0.0 0.00 0.00 0.00 91 1015.5
20260505161957 56 0.0 0.0 0.00 0.00 0.00 92 1015.6
20260505151959 56 0.0 0.0 0.00 0.00 0.00 90 1015.5
20260505150958 56 0.0 0.0 0.00 0.00 0.00 89 1015.4
20260505124959 56 0.0 0.0 0.00 0.00 0.00 84 1014.4
20260505123958 56 0.0 0.0 0.00 0.00 0.00 84 1014.3
20260505122959 56 0.0 0.0 0.00 0.00 0.00 84 1014.3
20260505121958 56 0.0 0.0 0.00 0.00 0.00 84 1014.3
20260505120958 56 0.0 0.0 0.00 0.00 0.00 84 1014.3
20260505115958 57 0.0 0.0 0.00 0.00 0.00 83 1014.3
20260505113958 57 0.0 0.0 0.00 0.00 0.00 83 1014.2
20260505111957 57 0.0 0.0 0.00 0.00 0.00 83 1014.2
20260505095958 58 0.0 0.0 0.00 0.00 0.00 81 1013.7
20260505094957 58 0.0 0.0 0.00 0.00 0.00 82 1013.8
20260505093957 58 0.0 0.0 0.00 0.00 0.00 83 1013.7
20260505092959 58 0.0 0.0 0.00 0.00 0.00 83 1013.5
20260505090957 58 0.0 0.0 0.00 0.00 0.00 83 1013.4
20260505090000 58 0.0 0.0 0.00 0.00 0.00 83 1013.2
20260505084958 58 0.0 0.0 0.00 0.00 0.00 82 1013.3
20260505083958 58 0.0 0.0 0.00 0.00 0.00 82 1013.2
20260505081957 59 0.0 0.0 0.00 0.00 0.00 82 1013.2
20260505080957 59 0.0 0.0 0.00 0.00 0.00 82 1013.1
20260505080002 59 0.0 0.0 0.00 0.00 0.00 81 1013.0
20260505074000 59 0.0 0.0 0.00 0.00 0.00 81 1012.7
20260505073000 60 0.0 0.0 0.00 0.00 0.00 80 1012.7
20260505072000 60 0.0 0.0 0.00 0.00 0.00 80 1012.5
20260505070959 60 0.0 0.0 0.00 0.00 0.00 80 1012.4
20260505070001 60 0.0 0.0 0.00 0.00 0.00 79 1012.4
20260505064959 61 0.0 0.0 0.00 0.00 0.00 78 1012.3
20260505063959 61 0.0 0.0 0.00 0.00 0.00 78 1012.0
20260505063000 61 0.0 0.0 0.00 0.00 0.00 77 1011.9
20260505061959 62 0.0 0.0 0.00 0.00 0.00 77 1011.7
20260505060959 62 0.0 0.0 0.00 0.00 0.00 76 1011.6
20260505060005 63 0.0 0.0 0.00 0.00 0.00 75 1011.5
20260505054958 63 0.0 0.0 0.00 0.00 0.00 75 1011.6
20260505054000 63 0.0 0.0 0.00 0.00 0.00 74 1011.5
20260505053002 64 0.0 0.0 0.00 0.00 0.00 73 1011.4
20260505050959 65 0.0 0.0 0.00 0.00 0.00 71 1011.3
20260505040958 69 0.0 0.0 0.00 0.00 0.00 67 1010.5
20260505034959 70 0.0 0.0 0.00 0.00 0.00 66 1010.1
20260505033959 71 0.0 0.0 0.00 0.00 0.00 68 1009.9